Overview Statistics Trail Chart Weather Telemetry Raw packets
 

This is the latest recevied weather packets stored in our database for station/object K1RFS. If no packets are shown the sender has not sent any weather packets the latest 10 day(s).

<< 91 92 93 94 95 96 97 >>
Time Temp. Humidity Pressure Rain* Wind** Luminosity Snow
1788018861 17.78° C 91% 1006.1 hPa 0 mm - 90 W/m² -
1788018556 17.78° C 92% 1006.1 hPa 0 mm - 107 W/m² -
1788018254 17.22° C 92% 1006 hPa 0 mm - 77 W/m² -
1788017951 17.22° C 92% 1005.7 hPa 0 mm - 54 W/m² -
1788017647 17.22° C 92% 1005.6 hPa 0 mm - 66 W/m² -
1788017344 17.78° C 92% 1005.5 hPa 0 mm - 79 W/m² -
1788017054 17.78° C 91% 1005.7 hPa 0 mm - 92 W/m² -
1788016739 17.78° C 91% 1005.6 hPa 0 mm - 93 W/m² -
1788016438 17.22° C 91% 1005.5 hPa 0 mm - 78 W/m² -
1788016137 17.22° C 91% 1005.3 hPa 0 mm - 53 W/m² -
1788015836 17.22° C 91% 1005.2 hPa 0 mm - 79 W/m² -
1788015531 17.22° C 91% 1005.5 hPa 0 mm - 51 W/m² -
1788015226 16.67° C 91% 1005.3 hPa 0 mm - 59 W/m² -
1788014925 16.67° C 91% 1005.3 hPa 0 mm - 55 W/m² -
1788014619 16.67° C 90% 1005 hPa 1.78 mm - 60 W/m² -
1788014315 16.67° C 90% 1004.9 hPa 1.78 mm - 38 W/m² -
1788014010 16.67° C 89% 1005.2 hPa 7.87 mm - 32 W/m² -
1788013710 17.22° C 88% 1005.4 hPa 11.94 mm - 25 W/m² -
1788013409 17.78° C 85% 1005.2 hPa 10.16 mm - 17 W/m² -
1788013109 17.78° C 83% 1005.4 hPa 10.67 mm - 11 W/m² -
1788012808 17.78° C 82% 1005.5 hPa 6.1 mm - 11 W/m² -
1788012503 17.78° C 79% 1005.5 hPa 1.27 mm - 7 W/m² -
1788012203 17.22° C 83% 1005.2 hPa 0 mm - 3 W/m² -
1788011902 17.22° C 84% 1004.4 hPa 0 mm - 7 W/m² -
1788011601 17.22° C 85% 1004.2 hPa 0 mm - 28 W/m² -

* Rain latest hour (hover to see other rain measurements)
** Current wind speed in m/s (hover to see current wind gust speed)